Regional Weather Roundup
Issued by NWS

Home | Current Version | Previous Version | Graphics & Text | Print | Product List | Glossary On
Versions: 1 2 3 4 5 6 7 8 9 10 11 12 13 14 15 16 17 18 19 20 21 22 23 24 25 26 27 28 29 30 31 32 33 34 35 36 37 38 39 40 41 42 43 44 45 46 47 48 49 50
000
ASUS45 KCYS 270510
RWRWY

WYOMING REGIONAL WEATHER ROUNDUP
NATIONAL WEATHER SERVICE CHEYENNE WY
1000 PM MST MON JAN 26 2015

NOTE:  "FAIR" INDICATES FEW OR NO CLOUDS BELOW 12,000 FEET
WITH NO SIGNIFICANT WEATHER AND/OR OBSTRUCTIONS TO VISIBILITY.

WYZ001-270600-
YELLOWSTONE NATIONAL PARK

CITY           SKY/WX    TMP DP  RH WIND       PRES   REMARKS
LK YELLOWSTONE   N/A     17  13  84 CALM      30.32F
W YELLOWSTONE  NOT AVBL

$$
WYZ002>013-054>058-071-098>099-270600-
NORTHERN WYOMING

CITY           SKY/WX    TMP DP  RH WIND       PRES   REMARKS
JACKSON        FAIR      16  16 100 NE7       30.32R WCI   6
CODY           FAIR      36  28  75 CALM      30.12S
GREYBULL       FAIR      21  19  92 NW3       30.14S
WORLAND        FAIR      21  18  88 SW7       30.13S WCI  12
SHERIDAN       FAIR      40  26  57 CALM      30.00S
BUFFALO        FAIR      49  23  36 NW6       30.06S
GILLETTE       FAIR      49  28  44 SW13      30.03S
HULETT           N/A    N/A N/A N/A MISG        N/A
NEWCASTLE      FAIR      36  30  80 CALM      30.07S

$$
WYZ014>020-022>026-101>103-270600-
CENTRAL WYOMING

CITY           SKY/WX    TMP DP  RH WIND       PRES   REMARKS
BIG PINEY      FAIR      20  17  88 E5        30.32R WCI  13
PINEDALE       FAIR      18  16  93 NW6       30.32S WCI   9
DUBOIS         FAIR      36  23  60 NW12      30.24S WCI  27
LANDER         FAIR      30  25  81 CALM      30.19S
RIVERTON       FAIR      31  25  78 NW10      30.20F WCI  22
CASPER         FAIR      44  26  49 SW18G24   30.16F
DOUGLAS        FAIR      37  26  64 NW5       30.14S WCI  33

$$
WYZ021-027>030-104>119-270600-
SOUTHERN WYOMING

CITY           SKY/WX    TMP DP  RH WIND       PRES   REMARKS
EVANSTON       FAIR      35  27  72 NE7       30.28F WCI  29
KEMMERER       FAIR      32  25  74 N12       30.30S WCI  23
FORT BRIDGER   FAIR      40  32  71 CALM      30.32S
ROCK SPRINGS   FAIR      34  25  69 S7        30.28F WCI  28
DIXON          FAIR      29  24  82 E3        30.34F
RAWLINS        FAIR      27  23  85 CALM      30.31R
SARATOGA       FAIR      32  27  80 CALM      30.31S
LARAMIE        FAIR      30  22  72 S12       30.28F WCI  20
CHEYENNE       FAIR      44  20  38 W10       30.21F
TORRINGTON     FAIR      33  26  75 NE10      30.10F WCI  25
PINE BLUFFS    FAIR      34  25  69 S6        30.18F WCI  29

$$


USA.gov is the U.S. government's official web portal to all federal, state and local government web resources and services.